Location: Newark
(54.6833°N, 25.2833°E)
Time: 01:42:05
(UTC+00:00)

BEESAT 2 - Visible Passes

Search period start: 24 October 2020 00:00
Search period end: 03 November 2020 00:00
Orbit: 488 x 536 km, 64.9° (Epoch: 23 October)

Date Brightness Start Highest point End Pass type
(mag) Time Alt. Az. Time Alt. Az. Time Alt. Az.
24 Oct ? 15:34:17 10° SW 15:38:17 77° NW 15:42:22 10° NE visible
24 Oct ? 17:13:02 10° WNW 17:16:27 26° NNW 17:18:21 18° NNE visible
24 Oct ? 18:52:11 10° NW 18:53:15 15° NNW 18:53:15 15° NNW visible
25 Oct ? 16:56:11 10° WNW 16:59:36 26° NNW 17:01:55 16° NNE visible
25 Oct ? 18:35:20 10° NW 18:36:50 16° NNW 18:36:50 16° NNW visible
26 Oct ? 16:39:19 10° WNW 16:42:45 26° NNW 16:45:29 14° NNE visible
26 Oct ? 18:18:29 10° NW 18:20:23 18° NNW 18:20:23 18° NNW visible
27 Oct ? 16:22:28 10° WNW 16:25:54 26° NNW 16:29:01 12° NE visible
27 Oct ? 18:01:38 10° NW 18:03:55 19° N 18:03:55 19° N visible
28 Oct ? 16:05:37 10° WNW 16:09:02 26° NNW 16:12:29 10° NE visible
28 Oct ? 17:44:46 10° NW 17:47:27 19° N 17:47:27 19° N visible
29 Oct ? 15:48:45 10° WNW 15:52:10 26° NNW 15:55:37 10° NE visible
29 Oct ? 17:27:55 10° NW 17:30:55 19° N 17:30:59 19° N visible
30 Oct ? 15:31:53 10° WNW 15:35:18 26° NNW 15:38:45 10° NE visible
30 Oct ? 17:11:03 10° NW 17:14:03 19° N 17:14:30 19° NNE visible
30 Oct ? 18:49:01 10° NW 18:49:24 12° NW 18:49:24 12° NW visible
31 Oct ? 16:54:10 10° NW 16:57:10 19° N 16:58:01 18° NNE visible
31 Oct ? 18:32:09 10° NW 18:32:55 14° NNW 18:32:55 14° NNW visible
01 Nov ? 16:37:18 10° NW 16:40:18 19° N 16:41:32 17° NNE visible
01 Nov ? 18:15:16 10° NW 18:16:27 17° NNW 18:16:27 17° NNW visible
02 Nov ? 16:20:25 10° NW 16:23:25 19° N 16:25:04 16° NE visible
02 Nov ? 17:58:24 10° NW 17:59:58 20° NNW 17:59:58 20° NNW visible
